This demonstration page uses our WeatherBlox Daily Observations layout. Learn more.

Left ArrowRight Arrow

Hourly Observations for September 1, 2016

Temp ( °F °C ) Dew Point ( °F °C ) Humidity (%) Winds ( mph kmh ) Pressure ( in mb ) Visibility ( mi km ) Precip ( " mm )
12:54 am 00:54 Clear 59 15 57 13.9 93 93 N 5 7 30.18 1022 10 16 0.00 0.00
1:54 am 01:54 Clear 59 15 57 13.9 93 93 N 6 9 30.18 1022 10 16 0.00 0.00
2:54 am 02:54 Clear 58 14.4 56 13.3 93 93 N 6 9 30.18 1022 10 16 0.00 0.00
3:54 am 03:54 Clear 57 13.9 56 13.3 96 96 N 6 9 30.17 1022 10 16 0.00 0.00
4:54 am 04:54 Clear 56 13.3 55 12.8 97 97 NNW 3 6 30.19 1022 10 16 0.00 0.00
5:54 am 05:54 Clear 56 13.3 55 12.8 97 97 N 5 7 30.20 1023 10 16 0.00 0.00
6:54 am 06:54 Clear 56 13.3 55 12.8 97 97 N 6 9 30.21 1023 10 16 0.00 0.00
7:54 am 07:54 Sunny 58 14.4 56 13.3 93 93 N 7 11 30.22 1024 10 16 0.00 0.00
8:54 am 08:54 Sunny 66 18.9 61 16.1 84 84 VRB 3 6 30.22 1023 10 16 0.00 0.00
9:54 am 09:54 Sunny 72 22.2 59 15 64 64 ENE 6 9 30.22 1023 10 16 0.00 0.00
10:54 am 10:54 Sunny 74 23.3 58 14.4 57 57 ENE 7 11 30.22 1023 10 16 0.00 0.00
11:54 am 11:54 Sunny 76 24.4 58 14.4 54 54 E 7 11 30.21 1023 10 16 0.00 0.00
12:54 pm 12:54 Sunny 79 26.1 58 14.4 49 49 ENE 12 19 30.20 1023 10 16 0.00 0.00
1:54 pm 13:54 Sunny 80 26.7 58 14.4 47 47 NE 9 15 30.19 1022 10 16 0.00 0.00
2:54 pm 14:54 Sunny 81 27.2 57 13.9 44 44 E 8 13 30.18 1022 10 16 0.00 0.00
3:54 pm 15:54 Sunny 81 27.2 56 13.3 42 42 E 12 19 30.16 1021 10 16 0.00 0.00
4:54 pm 16:54 Sunny 80 26.7 57 13.9 45 45 E 10 17 30.15 1021 10 16 0.00 0.00
5:54 pm 17:54 Sunny 79 26.1 56 13.3 45 45 ENE 12 19 30.15 1021 10 16 0.00 0.00
6:54 pm 18:54 Sunny 79 26 61 16 54 54 NNE 10 17 30.09 1019 10 16 0.00 0.00
7:54 pm 19:54 Sunny 74 23.3 58 14.4 57 57 E 8 13 30.15 1021 10 16 0.00 0.00
8:54 pm 20:54 Clear 72 22.2 58 14.4 61 61 E 8 13 30.16 1021 10 16 0.00 0.00
9:54 pm 21:54 Clear 70 21.1 58 14.4 66 66 E 8 13 30.17 1022 10 16 0.00 0.00
10:54 pm 22:54 Clear 68 20 58 14.4 70 70 E 7 11 30.17 1022 10 16 0.00 0.00
11:54 pm 23:54 Clear 67 19.4 58 14.4 73 73 ESE 7 11 30.17 1022 10 16 0.00 0.00

Powered by AerisWeather